Regional Weather Roundup
Issued by NWS

Home | Current Version | Previous Version | Text Only | Print | Product List | Glossary On
Versions: 1 2 3 4 5 6 7 8 9 10 11 12 13 14 15 16 17 18 19 20 21 22 23 24 25 26 27 28 29 30 31 32 33 34 35 36 37 38 39 40 41 42 43 44 45 46 47 48 49 50
000
ASUS43 KMKX 281921
RWRWI

WISCONSIN REGIONAL WEATHER ROUNDUP
NATIONAL WEATHER SERVICE MILWAUKEE/SULLIVAN WI
200 PM CDT THU AUG 28 2014

NOTE: "FAIR" INDICATES FEW OR NO CLOUDS BELOW 12,000 FEET WITH NO
SIGNIFICANT WEATHER AND/OR OBSTRUCTIONS TO VISIBILITY.

WIZ001-002-006>008-014>016-023>028-282000-
NORTHWEST WISCONSIN

CITY           SKY/WX    TMP DP  RH WIND       PRES   REMARKS
SUPERIOR ARPT  MOSUNNY   67  58  71 NE8       30.05F
ASHLAND        MOSUNNY   75  54  47 CALM      30.08F
HAYWARD        MOSUNNY   71  54  54 S7        30.07F
SIREN          PTSUNNY   73  58  59 S7        30.05F
RICE LAKE      PTSUNNY   72  57  60 SE9       30.07F
LADYSMITH      PTSUNNY   72  57  59 SE6       30.10F
EAU CLAIRE     CLOUDY    72  61  68 SE9       30.05F
MENOMONIE      CLOUDY    72  62  71 SE9       30.05F
NEW RICHMOND   CLOUDY    70  60  71 SE9       30.05S
OSCEOLA        PTSUNNY   71  61  71 E10       30.06F
$$

WIZ003>005-009-010-017-018-282000-
NORTH CENTRAL WISCONSIN

CITY           SKY/WX    TMP DP  RH WIND       PRES   REMARKS
WOODRUFF       SUNNY     72  51  46 SE6       30.11F
RHINELANDER    PTSUNNY   69  54  58 S5        30.13F
EAGLE RIVER    SUNNY     70  47  43 SE6       30.12F
LAND O LAKES   SUNNY     71  46  41 S3        30.13F
PHILLIPS       PTSUNNY   72  56  57 S7        30.09F
TOMAHAWK       PTSUNNY   69  54  59 SE5       30.13F
MEDFORD        CLOUDY    67  60  77 SE6       30.11F
MERRILL        PTSUNNY   68  59  72 SE8       30.12F
$$

WIZ029-030-035-036-043>047-282000-
CENTRAL WISCONSIN

CITY           SKY/WX    TMP DP  RH WIND       PRES   REMARKS
WAUSAU         PTSUNNY   68  59  73 E5        30.11F
MOSINEE        PTSUNNY   70  63  78 E3        30.12
MARSHFIELD     CLOUDY    71  61  70 E7        30.10F
STEVENS POINT  CLOUDY    70  59  68 E3        30.11F
WAUPACA        CLOUDY    74  61  62 E8        30.11F
WAUTOMA        LGT RAIN  74  61  63 SE7       30.11F
WISC RAPIDS    PTSUNNY   74  60  61 S8        30.10F
CAMP DOUGLAS   CLOUDY    73  64  73 SE6       30.08F
$$

WIZ011>013-019>022-031-037>040-048>050-282000-
NORTHEAST WISCONSIN

CITY           SKY/WX    TMP DP  RH WIND       PRES   REMARKS
ANTIGO         PTSUNNY   67  56  67 S5        30.14F
STURGEON BAY   CLOUDY    64  55  72 SE10      30.15F
GREEN BAY      CLOUDY    70  60  70 SE7       30.13F
MANITOWOC      CLOUDY    67  55  65 S13       30.15F
APPLETON       PTSUNNY   72  57  60 SE9       30.13F
CLINTONVILLE   CLOUDY    70  59  68 E5        30.12F
OSHKOSH        CLOUDY    72  60  66 SE6       30.12F
$$

WIZ032>034-041-042-053>061-282000-
SOUTHWEST WISCONSIN

CITY           SKY/WX    TMP DP  RH WIND       PRES   REMARKS
LA CROSSE      LGT RAIN  71  64  78 SE7       30.05F
SPARTA         LGT RAIN  72  61  68 SE6       30.08F
VIROQUA        CLOUDY    68  65  91 SE7       30.08F
BOSCOBEL       CLOUDY    74  61  63 E7        30.06F
PRAIRIE DU CHI LGT RAIN  69  63  81 E6        30.04F
PLATTEVILLE    FAIR      70  64  80 SE8       30.08F
$$

WIZ056-057-062-063-064-067-068-282000-
SOUTH CENTRAL WISCONSIN

CITY           SKY/WX    TMP DP  RH WIND       PRES   REMARKS
BARABOO/DELLS  CLOUDY    73  57  59 SE7       30.10S
LONE ROCK      CLOUDY    76  62  62 SE8       30.08F
WATERTOWN      PTSUNNY   73  59  62 SE7       30.11S
MADISON        CLOUDY    74  60  61 SE9       30.10F
MIDDLETON      CLOUDY    75  59  57 SE8       30.10S
MONROE         CLOUDY    73  61  64 SE8       30.09F
JANESVILLE     MOSUNNY   79  57  47 SE10      30.10F HX  80
$$

WIZ051-052-058>065-066-070>072-282000-
SOUTHEAST WISCONSIN

CITY           SKY/WX    TMP DP  RH WIND       PRES   REMARKS
MILWAUKEE      PTSUNNY   70  54  56 E10       30.14F
WAUKESHA       MOSUNNY   72  54  53 SE9       30.14F
MILWAUKEE/TIMM SUNNY     70  48  46 E10G16    30.15F
RACINE         SUNNY     71  56  58 E9        30.15F
BURLINGTON     MOSUNNY   71  54  54 E8        30.12S
KENOSHA        SUNNY     72  53  51 E8G21     30.13F
FOND DU LAC    CLOUDY    71  58  63 SE10      30.12F
SHEBOYGAN      MOSUNNY   70  54  56 SE9       30.15F
WEST BEND      PTSUNNY   70  52  52 E10       30.14F
JUNEAU         PTSUNNY   71  58  63 SE6       30.12F
$$

LSZ147-162-282000-
LAKE SUPERIOR

STATION/POSITION TIME  TEMP    WIND        PRES    WAVE
                       AIR SEA DIR/SP/G            HT/PER
                 (UTC) (F)     (DEG/KT/KT) (MB)    (FT/S)
W MID LAKE BUOY  1850   59 58   CALM  /  2 1019.5F   1
DEVILS ISLAND    1900   62      50/  8/  8 1018.9F
PORT WING        1800   65      20/  9/ 10 1018.6F
SAXON HARBOR     1800   64      30/  5/  6 1019.3F
$$

LMZ867-665-643>646-282000-
LAKE MICHIGAN

STATION/POSITION TIME  TEMP    WIND        PRES    WAVE
                       AIR SEA DIR/SP/G            HT/PER
                 (UTC) (F)     (DEG/KT/KT) (MB)    (FT/S)
N MID LAKE BUOY  1850   62 66  140/  6/  6 1021.8F   0
NORTHPORT PIER   1800   64     150/ 10/ 13 1021.3F
SISTER BAY       1826   69     180/ 12/ 16   N/A
KEWAUNEE LAKESHO 1900   65     160/ 11/ 12 1020.1F
SHEBOYGAN LAKESH 1900   65 69  160/ 11/ 12 1021.1F
ATWATER BUOY     1900   67     120/  8/ 12 1021.7F
MILWAUKEE LAKESH 1900   67     110/  9/ 10   N/A
S MID LAKE BUOY  1850   67 69   70/ 10/ 10 1020.5F
KENOSHA   LAKESH 1900   67      70/  9/ 11 1019.6F
$$

TC  - TEMPERATURE IN CELSIUS
VSB - VISIBILITY IN STATUTE MILES
WCI - WIND CHILL INDEX
HX  - HEAT INDEX



USA.gov is the U.S. government's official web portal to all federal, state and local government web resources and services.